Agassiz, British Columbia

6:02 AM PST on February 22, 2017 (GMT -0800)
Agassiz

Weather History for CWZA - September, 2012

Change the Weather History Date:

Saturday, September 22, 2012

  Actual Average Record
Temperature  
Mean Temperature 59 °F -  
Max Temperature 63 °F 62 °F - ()
Min Temperature 55 °F 46 °F - ()
Degree Days  
Heating Degree Days 6    
Growing Degree Days 9 (Base 50)    
Moisture  
Dew Point 54 °F    
Average Humidity 85    
Maximum Humidity 97    
Minimum Humidity 68    
Precipitation  
Precipitation 0.00 in 0.20 in - ()
Sea Level Pressure  
Sea Level Pressure 30.15 in    
Wind  
Wind Speed 1 mph ()    
Max Wind Speed 5 mph    
Max Gust Speed -    
T = Trace of Precipitation, MM = Missing Value Source: Averaged Metar Reports

Daily Weather History Graph

Daily Weather History Graph

Search for Another Location

Airport or City:

Trip Planner

Search our weather history database for the weather conditions in past years. The results will help you decide how hot, cold, wet, or windy it might be!

Date:

Astronomy

Sep. 22, 2012 Rise Set
Actual Time 6:54 AM PDT 7:03 PM PDT
Civil Twilight 6:22 AM PDT 7:35 PM PDT
Nautical Twilight 5:45 AM PDT 8:12 PM PDT
Astronomical Twilight 5:06 AM PDT 8:51 PM PDT
Moon 2:48 PM PDT 11:43 PM PDT
Length of Visible Light 13h 12m
Length of Day
12h 09m
Waxing Crescent, 50% of the Moon is Illuminated
Sep 22
Waxing Crescent
Sep 22
First Quarter
Sep 29
Full
Oct 8
Last Quarter
Oct 15
New

Hourly Weather History & Observations

Time (PDT) Temp. Dew Point Humidity Pressure Visibility Wind Dir Wind Speed Gust Speed Precip Events Conditions
12:00 AM 56.3 °F 54.7 °F 94% 30.15 in - Calm Calm - N/A   Unknown
1:00 AM 56.1 °F 55.0 °F 96% 30.16 in - Calm Calm - N/A   Unknown
2:00 AM 56.3 °F 55.0 °F 96% 30.16 in - Calm Calm - N/A   Unknown
3:00 AM 56.1 °F 54.3 °F 94% 30.16 in - NNW 2.3 mph - N/A   Unknown
4:00 AM 55.6 °F 54.3 °F 96% 30.16 in - South 1.2 mph - N/A   Unknown
5:00 AM 56 °F 55 °F 94% 30.16 in - Calm Calm - -  
5:00 AM 55.6 °F 54.7 °F 97% 30.16 in - Calm Calm - N/A   Unknown
6:00 AM 55.4 °F 54.5 °F 97% 30.15 in - Calm Calm - N/A   Unknown
7:00 AM 55.2 °F 54.5 °F 97% 30.15 in - Calm Calm - N/A   Unknown
8:00 AM 56.1 °F 55.2 °F 97% 30.14 in - NE 1.2 mph - N/A   Unknown
9:00 AM 58.3 °F 55.6 °F 91% 30.16 in - SW 1.2 mph - N/A   Unknown
10:00 AM 59.2 °F 55.0 °F 86% 30.15 in - East 1.2 mph - N/A   Unknown
11:00 AM 61 °F 55 °F 75% 30.15 in - NNW 1.2 mph - -  
11:00 AM 60.8 °F 55.2 °F 82% 30.15 in - NNW 1.2 mph - N/A   Unknown
12:00 PM 61.7 °F 55.4 °F 80% 30.14 in - SSW 3.5 mph - N/A   Unknown
1:00 PM 62.8 °F 54.9 °F 75% 30.14 in - South 3.5 mph - N/A   Unknown
2:00 PM 63.0 °F 53.4 °F 71% 30.13 in - SW 4.6 mph - N/A   Unknown
3:00 PM 62.6 °F 54.5 °F 75% 30.14 in - SW 3.5 mph - N/A   Unknown
4:00 PM 62.6 °F 54.7 °F 75% 30.14 in - SSW 3.5 mph - N/A   Unknown
5:00 PM 62 °F 54 °F 68% 30.13 in - SW 3.5 mph - -  
5:00 PM 62.4 °F 54.1 °F 74% 30.13 in - SW 3.5 mph - N/A   Unknown
6:00 PM 61.5 °F 54.1 °F 77% 30.14 in - SW 3.5 mph - N/A   Unknown
7:00 PM 60.4 °F 53.2 °F 77% 30.14 in - SSW 2.3 mph - N/A   Unknown
8:00 PM 58.8 °F 53.4 °F 82% 30.14 in - Calm Calm - N/A   Unknown
9:00 PM 57.9 °F 54.0 °F 87% 30.14 in - ESE 1.2 mph - N/A   Unknown
10:00 PM 57.7 °F 54.3 °F 88% 30.14 in - Calm Calm - N/A   Unknown
11:00 PM 57 °F 54 °F 85% 30.14 in - Calm Calm - -  
11:00 PM 57.4 °F 53.8 °F 88% 30.14 in - Calm Calm - N/A   Unknown